Sigfox identifier Datetime Temperature Humidity SNR
003C21CB 2018-10-09 09:18:50 20.9 38 16.4
003C21CB 2018-10-09 08:16:29 20.9 38 16.4
003C21CB 2018-10-09 07:14:08 20.9 37 16.3
003C21CB 2018-10-09 06:11:45 20.9 37 19.1
003C21CB 2018-10-09 05:09:21 20.9 37 18.9
003C21CB 2018-10-09 02:02:12 20.9 37 18.6
003C21CB 2018-10-09 00:59:49 20.9 37 18.5
003C21CB 2018-10-08 23:57:26 20.9 37 18.3
003C21CB 2018-10-08 22:55:03 20.9 37 18.1
003C21CB 2018-10-08 21:52:41 20.9 37 18.1
003C21CB 2018-10-08 20:50:20 20.7 37 18.1
003C21CB 2018-10-08 19:48:00 20.9 37 18.1
003C21CB 2018-10-08 18:45:34 20.7 37 17.8
003C21CB 2018-10-08 17:43:13 20.7 37 17.6
003C21CB 2018-10-08 16:40:53 20.7 37 17.6
003C21CB 2018-10-08 15:38:33 20.7 37 17.6
003C21CB 2018-10-08 14:36:15 20.5 37 17.5
003C21CB 2018-10-08 13:33:55 20.5 37 17.4
003C21CB 2018-10-08 11:29:09 20.3 36 17.4
003C21CB 2018-10-08 07:19:38 20.3 37 17.4
003C21CB 2018-10-08 06:17:15 20.3 37 17.3
003C21CB 2018-10-08 05:14:56 20.3 37 17.4
003C21CB 2018-10-08 04:12:32 20.3 38 17.3
003C21CB 2018-10-08 03:10:11 20.4 38 17.4
003C21CB 2018-10-08 02:07:52 20.4 38 17.4
003C21CB 2018-10-08 01:05:33 20.5 38 17.5
003C21CB 2018-10-08 00:03:12 20.5 38 12.3
003C21CB 2018-10-07 23:00:49 20.5 39 12.6
003C21CB 2018-10-07 21:58:24 20.5 39 12.6
003C21CB 2018-10-07 20:56:01 20.5 39 12.5
003C21CB 2018-10-07 19:53:37 20.5 39 12.2
003C21CB 2018-10-07 18:51:15 20.5 39 12.9
003C21CB 2018-10-07 17:48:54 20.5 39 13
003C21CB 2018-10-07 16:46:33 20.5 39 12.9
003C21CB 2018-10-07 15:44:14 20.5 39 13.3
003C21CB 2018-10-07 14:41:48 20.5 39 13.2
003C21CB 2018-10-07 13:39:27 20.5 39 13.1
003C21CB 2018-10-07 12:37:07 20.5 39 13.1
003C21CB 2018-10-07 11:34:42 20.6 39 12.9
003C21CB 2018-10-07 08:27:38 20.7 39 12.8
003C21CB 2018-10-07 07:25:14 20.7 39 13
003C21CB 2018-10-07 06:22:52 20.7 39 13
003C21CB 2018-10-07 05:20:29 20.7 40 12.9
003C21CB 2018-10-07 04:18:06 20.7 40 12.7
003C21CB 2018-10-07 03:15:45 20.7 40 12.7
003C21CB 2018-10-07 02:13:22 20.7 40 12.7
003C21CB 2018-10-07 01:11:00 20.7 40 12.4
003C21CB 2018-10-07 00:08:38 20.7 40 12.4
003C21CB 2018-10-06 23:06:13 20.7 40 12.6
003C21CB 2018-10-06 22:03:50 20.7 40 12.9
003C21CB 2018-10-06 21:01:27 20.8 40 12.4
003C21CB 2018-10-06 19:59:02 20.9 40 12.6
003C21CB 2018-10-06 18:56:38 20.9 40 12.3
003C21CB 2018-10-06 17:54:17 20.9 40 12.4
003C21CB 2018-10-06 16:51:53 20.9 40 12.4
003C21CB 2018-10-06 15:49:32 20.9 40 12.5
003C21CB 2018-10-06 14:47:11 20.9 40 11.8
003C21CB 2018-10-06 13:44:43 20.9 40 11.6
003C21CB 2018-10-06 12:42:21 20.9 40 11.6
003C21CB 2018-10-06 11:39:59 20.9 40 11.5
003C21CB 2018-10-06 10:37:32 20.9 40 11.3
003C21CB 2018-10-06 09:35:07 21 40 11.6
003C21CB 2018-10-06 08:32:43 21 40 11.4
003C21CB 2018-10-06 07:30:17 21 40 11.4
003C21CB 2018-10-06 06:27:53 21.1 40 11.4
003C21CB 2018-10-06 05:25:28 21.1 40 11.5
003C21CB 2018-10-06 04:23:04 21.1 41 11.4
003C21CB 2018-10-06 03:20:40 21.1 41 11.7
003C21CB 2018-10-06 02:18:14 21.1 41 11.7
003C21CB 2018-10-06 01:15:48 21.1 41 11.7
003C21CB 2018-10-06 00:13:19 21.3 41 11.9
003C21CB 2018-10-05 23:10:54 21.3 41 11.9
003C21CB 2018-10-05 22:08:30 21.3 41 12.1
003C21CB 2018-10-05 21:06:02 21.3 41 11.8
003C21CB 2018-10-05 20:03:36 21.3 41 11.4
003C21CB 2018-10-05 19:01:09 21.3 41 11.8
003C21CB 2018-10-05 17:58:41 21.3 41 11.6
003C21CB 2018-10-05 16:56:14 21.3 40 11.6
003C21CB 2018-10-05 15:53:49 21.4 40 12
003C21CB 2018-10-05 14:51:22 21.3 39 12
003C21CB 2018-10-05 13:48:56 21.1 37 12.7
003C21CB 2018-10-05 12:46:28 21.1 36 13.2
003C21CB 2018-10-05 11:44:02 20.9 36 13.6
003C21CB 2018-10-05 09:39:13 20.7 34 14
003C21CB 2018-10-05 08:36:51 20.7 33 13.8
003C21CB 2018-10-05 07:34:25 20.7 33 14.6
003C21CB 2018-10-05 06:32:01 20.7 33 14.8
003C21CB 2018-10-05 05:29:38 20.7 33 14.9
003C21CB 2018-10-05 04:27:10 20.7 33 15.7
003C21CB 2018-10-05 03:24:44 20.8 34 16.5
003C21CB 2018-10-05 02:22:14 20.9 34 16.5
003C21CB 2018-10-05 01:19:46 20.9 34 16.8
003C21CB 2018-10-05 00:17:21 20.9 34 17.4
003C21CB 2018-10-04 23:14:53 20.9 34 17.4
003C21CB 2018-10-04 22:12:27 20.9 34 17.6
003C21CB 2018-10-04 21:09:58 21 34 17.7
003C21CB 2018-10-04 20:07:33 20.9 34 18.9
003C21CB 2018-10-04 19:05:09 20.9 34 18.9
003C21CB 2018-10-04 18:02:44 20.8 33 18.9
003C21CB 2018-10-04 17:00:21 20.7 33 19
003C21CB 2018-10-04 15:57:56 20.7 33 19.1
003C21CB 2018-10-04 14:55:30 20.6 34 19.3
003C21CB 2018-10-04 12:50:38 20.5 35 19.5
003C21CB 2018-10-04 11:48:11 20.3 36 19.6
003C21CB 2018-10-04 10:45:47 20.3 36 19.8
003C21CB 2018-10-04 09:43:21 20.3 37 19.8
003C21CB 2018-10-04 08:40:58 20.3 38 19.9
003C21CB 2018-10-04 07:38:32 20.3 39 20
003C21CB 2018-10-04 06:36:07 20.3 39 20.1
003C21CB 2018-10-04 05:33:43 20.3 40 20.4
003C21CB 2018-10-04 04:31:16 20.3 40 20.3
003C21CB 2018-10-04 03:28:50 20.4 40 20.5
003C21CB 2018-10-04 02:26:23 20.5 41 20.8
003C21CB 2018-10-04 01:23:54 20.5 41 20.7
003C21CB 2018-10-04 00:21:27 20.5 42 20.3
003C21CB 2018-10-03 23:19:00 20.6 42 20.6
003C21CB 2018-10-03 22:16:31 20.6 42 20.9
003C21CB 2018-10-03 21:14:02 20.7 43 20.4
003C21CB 2018-10-03 20:11:33 20.7 43 21
003C21CB 2018-10-03 19:09:05 20.7 43 21.5
003C21CB 2018-10-03 18:06:35 20.9 44 22.2
003C21CB 2018-10-03 17:04:06 20.9 45 12.6
003C21CB 2018-10-03 16:01:36 20.9 46 11.8
003C21CB 2018-10-03 14:59:04 20.7 51 0